{"data":{"norad_id":65292,"epoch":"2026-05-25T02:40:07.598784Z","epoch_age_seconds":62503,"freshness":"FRESH","line1":"1 65292U 25184V   26145.11119906  .00003031  00000+0  21398-3 0  9992","line2":"2 65292  97.4503 197.6779 0002539 100.8964 259.2548 15.05659221 42756","mean_motion":15.05659221,"eccentricity":0.0002539,"inclination_deg":97.4503,"raan_deg":197.6779,"arg_perigee_deg":100.8964,"mean_anomaly_deg":259.2548,"bstar":0.00021398,"rev_number":4275,"period_min":95.639171195963,"perigee_km":547.72394699523,"apogee_km":551.24179236506,"semimajor_km":6927.6198696801,"source":"CELESTRAK","updated_at":"2026-05-25T13:38:20.754893Z"}}